Vorticity
9 6 3 13 10 11 13 12 13 15 16 15 14 12 14 7 8 6 8 9 10 9
18 14 13 13 7 7 18 7 9 10 14 16 16 14 11 14 11 6 10 10 8 9
6 6 7 0 8 11 10 14 11 16 10 13 14 16 14 10 9 13 9 9 9 8
9 6 6 12 12 12 16 7 31 7 6 15 10 13 14 15 9 8 8 10 8 7
17 7 11 12 10 7 -3 23 28 7 2 18 15 11 11 13 8 9 9 8 9 9
4 12 3 7 19 13 13 18 26 13 4 14 16 12 11 9 12 10 9 14 13 17
8 7 -0 7 9 23 12 18 21 10 7 9 15 11 14 9 12 9 11 10 12 4
8 24 10 17 23 16 10 22 18 18 -2 7 13 12 18 15 18 13 8 7 8 7
-7 9 8 14 18 11 13 24 20 6 3 11 11 14 14 18 7 10 11 15 12 9
6 15 13 10 18 14 19 16 13 7 7 14 12 15 13 9 8 11 16 11 18 29
13 11 8 10 19 22 13 14 12 11 11 16 18 16 15 5 22 20 8 24 30 14
15 20 12 17 20 -3 17 8 9 18 10 19 17 11 10 10 21 18 29 25 8 4
13 18 -4 -3 23 8 14 28 17 13 10 18 21 16 12 31 27 26 18 14 4 6
21 10 12 11 17 9 12 8 12 11 13 15 19 27 28 17 22 22 15 3 7 12
Height
5638 5641 5641 5641 5642 5643 5644 5646 5646 5648 5651 5654 5658 5661 5664 5669 5674 5677 5682 5686 5690 5694
5623 5624 5626 5627 5628 5629 5630 5632 5634 5635 5637 5639 5643 5647 5651 5655 5660 5664 5668 5672 5676 5680
5608 5610 5612 5614 5615 5616 5617 5618 5620 5622 5624 5626 5629 5633 5637 5641 5645 5650 5654 5658 5662 5666
5593 5595 5598 5600 5600 5601 5602 5604 5605 5608 5612 5614 5616 5619 5622 5627 5631 5635 5639 5643 5647 5650
5579 5581 5584 5584 5586 5587 5588 5589 5591 5595 5599 5602 5604 5606 5609 5613 5616 5621 5625 5629 5632 5635
5566 5568 5570 5571 5572 5574 5576 5576 5579 5583 5587 5589 5591 5594 5596 5598 5602 5607 5611 5614 5617 5620
5554 5556 5558 5560 5561 5561 5563 5564 5567 5571 5575 5577 5579 5581 5583 5585 5589 5592 5596 5599 5603 5605
5544 5546 5548 5549 5549 5550 5551 5552 5556 5560 5563 5565 5568 5569 5570 5573 5575 5579 5583 5586 5589 5592
5533 5537 5538 5538 5538 5539 5541 5542 5546 5550 5552 5554 5556 5558 5559 5560 5564 5567 5570 5573 5575 5577
5523 5526 5527 5528 5529 5531 5532 5533 5536 5540 5542 5543 5544 5547 5548 5551 5553 5554 5557 5559 5561 5563
5513 5516 5517 5519 5520 5523 5525 5527 5529 5531 5532 5532 5533 5535 5538 5540 5541 5543 5545 5546 5549 5552
5505 5507 5509 5511 5513 5515 5518 5520 5521 5523 5524 5523 5524 5526 5528 5529 5530 5532 5534 5538 5541 5544
5496 5499 5502 5504 5507 5509 5511 5513 5515 5516 5516 5516 5517 5518 5519 5520 5521 5525 5529 5533 5536 5538
5489 5492 5495 5498 5500 5503 5506 5508 5509 5510 5510 5510 5509 5511 5513 5515 5519 5522 5525 5528 5531 5534